Weather History for Monroe, MI

Change the Weather History Date:

Saturday, December 13, 2014

  Actual Average Record
Temperature  
Mean Temperature 38 °F -  
Max Temperature 46 °F 38 °F 59 °F (1946)
Min Temperature 33 °F 24 °F -1 °F (1962)
Degree Days  
Heating Degree Days 26    
Moisture  
Dew Point 36 °F    
Average Humidity 90    
Maximum Humidity 100    
Minimum Humidity 81    
Precipitation  
Precipitation 0.00 in - - ()
Sea Level Pressure  
Sea Level Pressure 30.11 in    
Wind  
Wind Speed 10 mph (West)    
Max Wind Speed 16 mph    
Max Gust Speed 26 mph    
Visibility 4 miles    
Events      
Averages and records for this station are not official NWS values.
T = Trace of Precipitation, MM = Missing Value Source: NWS Daily Summary

Daily Weather History Graph

Daily Weather History Graph

Search for Another Location

Airport:

Trip Planner

Search our weather history database for the weather conditions in past years. The results will help you decide how hot, cold, wet, or windy it might be!

Date:

Astronomy

Dec. 13, 2014 Rise Set
Actual Time 7:53 AM EST 5:02 PM EST
Civil Twilight 7:21 AM EST 5:34 PM EST
Nautical Twilight 6:46 AM EST 6:09 PM EST
Astronomical Twilight 6:12 AM EST 6:43 PM EST
Moon No Moon Rise 12:11 PM EST (12/13)
Length of Visible Light 10h 13m
Length of Day
9h 09m
Waning Gibbous, 58% of the Moon is Illuminated
Dec 13
Waning Gibbous
Dec 14
Last Quarter
Dec 21
New
Dec 28
First Quarter
Jan 4
Full

Hourly Weather History & Observations

Time (EST) Temp. Windchill Dew Point Humidity Pressure Visibility Wind Dir Wind Speed Gust Speed Precip Events Conditions
12:16 AM 33.8 °F 25.8 °F 30.2 °F 87% 30.19 in 7.0 mi West 10.4 mph - N/A   Overcast
12:36 AM 33.8 °F 27.7 °F 30.2 °F 87% 30.19 in 7.0 mi West 6.9 mph - N/A   Overcast
12:56 AM 33.8 °F 26.4 °F 30.2 °F 87% 30.19 in 5.0 mi West 9.2 mph - N/A   Overcast
1:16 AM 33.8 °F 27.0 °F 30.2 °F 87% 30.19 in 5.0 mi West 8.1 mph - N/A   Overcast
1:36 AM 33.8 °F 27.0 °F 32.0 °F 93% 30.18 in 5.0 mi West 8.1 mph - N/A   Overcast
1:51 AM 33.8 °F 26.4 °F 32.0 °F 93% 30.18 in 5.0 mi West 9.2 mph - N/A   Overcast
2:12 AM 33.8 °F 26.4 °F 32.0 °F 93% 30.19 in 5.0 mi West 9.2 mph - N/A   Overcast
2:32 AM 33.8 °F 28.6 °F 32.0 °F 93% 30.19 in 4.0 mi West 5.8 mph - N/A   Overcast
2:52 AM 33.8 °F 28.6 °F 32.0 °F 93% 30.19 in 4.0 mi West 5.8 mph - N/A   Overcast
3:12 AM 33.8 °F 28.6 °F 32.0 °F 93% 30.19 in 3.0 mi WSW 5.8 mph - N/A   Overcast
3:32 AM 33.8 °F 27.7 °F 33.8 °F 100% 30.18 in 4.0 mi WSW 6.9 mph - N/A   Overcast
3:52 AM 33.8 °F 27.7 °F 33.8 °F 100% 30.17 in 4.0 mi WSW 6.9 mph - N/A   Overcast
4:12 AM 33.8 °F 27.0 °F 33.8 °F 100% 30.18 in 5.0 mi West 8.1 mph - N/A   Overcast
4:32 AM 33.8 °F 25.8 °F 33.8 °F 100% 30.17 in 5.0 mi West 10.4 mph - N/A   Overcast
4:52 AM 33.8 °F 26.4 °F 32.0 °F 93% 30.17 in 5.0 mi West 9.2 mph - N/A   Overcast
5:12 AM 33.8 °F 27.7 °F 33.8 °F 100% 30.17 in 5.0 mi West 6.9 mph - N/A   Overcast
5:33 AM 33.8 °F 26.4 °F 33.8 °F 100% 30.17 in 4.0 mi West 9.2 mph - N/A   Overcast
5:53 AM 33.8 °F 26.4 °F 33.8 °F 100% 30.16 in 5.0 mi WSW 9.2 mph - N/A   Overcast
6:13 AM 33.8 °F 27.0 °F 33.8 °F 100% 30.17 in 4.0 mi West 8.1 mph - N/A   Overcast
6:33 AM 33.8 °F 26.4 °F 33.8 °F 100% 30.16 in 4.0 mi West 9.2 mph - N/A   Overcast
6:53 AM 33.8 °F 26.4 °F 32.0 °F 93% 30.17 in 4.0 mi West 9.2 mph - N/A   Overcast
7:13 AM 33.8 °F 25.8 °F 32.0 °F 93% 30.16 in 4.0 mi West 10.4 mph 16.1 mph N/A   Overcast
7:33 AM 33.8 °F 24.8 °F 32.0 °F 93% 30.16 in 5.0 mi West 12.7 mph - N/A   Overcast
7:53 AM 33.8 °F 26.4 °F 32.0 °F 93% 30.16 in 4.0 mi West 9.2 mph - N/A   Overcast
8:12 AM 33.8 °F 25.8 °F 32.0 °F 93% 30.16 in 4.0 mi West 10.4 mph - N/A   Overcast
8:33 AM 35.6 °F 28.0 °F 32.0 °F 87% 30.16 in 4.0 mi West 10.4 mph - N/A   Overcast
8:53 AM 35.6 °F 28.6 °F 32.0 °F 87% 30.16 in 3.0 mi West 9.2 mph - N/A   Overcast
9:13 AM 35.6 °F 29.2 °F 33.8 °F 93% 30.17 in 3.0 mi West 8.1 mph - N/A   Overcast
9:33 AM 35.6 °F 28.0 °F 33.8 °F 93% 30.16 in 3.0 mi West 10.4 mph - N/A   Overcast
9:53 AM 35.6 °F 28.6 °F 33.8 °F 93% 30.16 in 3.0 mi West 9.2 mph - N/A   Overcast
10:13 AM 35.6 °F 26.6 °F 33.8 °F 93% 30.16 in 3.0 mi West 13.8 mph - N/A   Overcast
10:33 AM 35.6 °F 26.6 °F 33.8 °F 93% 30.16 in 4.0 mi West 13.8 mph - N/A   Overcast
10:53 AM 35.6 °F 27.5 °F 33.8 °F 93% 30.15 in 4.0 mi West 11.5 mph - N/A   Overcast
11:13 AM 37.4 °F 29.8 °F 33.8 °F 87% 30.15 in 5.0 mi West 11.5 mph - N/A   Overcast
11:33 AM 37.4 °F 30.3 °F 33.8 °F 87% 30.14 in 5.0 mi West 10.4 mph - N/A   Overcast
11:54 AM 37.4 °F 30.3 °F 33.8 °F 87% 30.12 in 5.0 mi West 10.4 mph - N/A   Overcast
12:14 PM 39.2 °F 33.0 °F 33.8 °F 81% 30.11 in 5.0 mi West 9.2 mph - N/A   Haze
12:32 PM 39.2 °F 33.0 °F 35.6 °F 87% 30.10 in 5.0 mi West 9.2 mph - N/A   Overcast
12:53 PM 39.2 °F 33.0 °F 35.6 °F 87% 30.09 in 5.0 mi West 9.2 mph - N/A   Overcast
1:13 PM 41.0 °F 35.2 °F 37.4 °F 87% 30.09 in 4.0 mi WSW 9.2 mph - N/A   Overcast
1:33 PM 41.0 °F 35.8 °F 37.4 °F 87% 30.08 in 4.0 mi West 8.1 mph - N/A   Overcast
1:53 PM 41.0 °F 35.2 °F 37.4 °F 87% 30.08 in 4.0 mi West 9.2 mph - N/A   Overcast
2:13 PM 42.8 °F 37.0 °F 37.4 °F 81% 30.07 in 4.0 mi WSW 10.4 mph - N/A   Overcast
2:33 PM 42.8 °F 37.5 °F 37.4 °F 81% 30.06 in 4.0 mi West 9.2 mph - N/A   Overcast
2:53 PM 42.8 °F 37.5 °F 37.4 °F 81% 30.06 in 4.0 mi West 9.2 mph - N/A   Overcast
3:13 PM 42.8 °F 38.0 °F 37.4 °F 81% 30.06 in 4.0 mi West 8.1 mph - N/A   Haze
3:33 PM 42.8 °F 37.5 °F 39.2 °F 87% 30.06 in 4.0 mi WSW 9.2 mph - N/A   Overcast
3:53 PM 42.8 °F 39.3 °F 39.2 °F 87% 30.06 in 4.0 mi WSW 5.8 mph - N/A   Overcast
4:14 PM 42.8 °F 38.6 °F 39.2 °F 87% 30.05 in 4.0 mi SW 6.9 mph - N/A   Overcast
4:34 PM 42.8 °F 38.0 °F 39.2 °F 87% 30.06 in 3.0 mi WSW 8.1 mph - N/A   Overcast
4:54 PM 42.8 °F 38.0 °F 39.2 °F 87% 30.06 in 3.0 mi WSW 8.1 mph - N/A   Overcast
5:14 PM 42.8 °F 37.5 °F 39.2 °F 87% 30.05 in 4.0 mi WSW 9.2 mph - N/A   Overcast
5:34 PM 42.8 °F 37.5 °F 39.2 °F 87% 30.05 in 4.0 mi WSW 9.2 mph - N/A   Overcast
5:54 PM 42.8 °F 38.0 °F 39.2 °F 87% 30.06 in 4.0 mi WSW 8.1 mph - N/A   Overcast
6:14 PM 42.8 °F 36.6 °F 39.2 °F 87% 30.06 in 4.0 mi West 11.5 mph 18.4 mph N/A   Overcast
6:34 PM 42.8 °F 36.2 °F 39.2 °F 87% 30.06 in 3.0 mi West 12.7 mph - N/A   Overcast
6:54 PM 42.8 °F 36.2 °F 39.2 °F 87% 30.05 in 3.0 mi West 12.7 mph - N/A   Overcast
7:15 PM 42.8 °F 35.8 °F 41.0 °F 93% 30.05 in 2.5 mi West 13.8 mph 19.6 mph N/A   Overcast
7:35 PM 42.8 °F 36.2 °F 41.0 °F 93% 30.05 in 2.5 mi West 12.7 mph - N/A   Overcast
7:55 PM 42.8 °F 35.4 °F 41.0 °F 93% 30.04 in 3.0 mi West 15.0 mph 19.6 mph N/A   Overcast
8:15 PM 44.6 °F 37.4 °F 41.0 °F 87% 30.04 in 4.0 mi West 16.1 mph 21.9 mph N/A   Overcast
8:35 PM 44.6 °F 37.8 °F 41.0 °F 87% 30.04 in 4.0 mi West 15.0 mph 20.7 mph N/A   Overcast
8:55 PM 44.6 °F 38.4 °F 41.0 °F 87% 30.03 in 3.0 mi West 12.7 mph 17.3 mph N/A   Overcast
9:15 PM 44.6 °F 38.1 °F 41.0 °F 87% 30.03 in 3.0 mi West 13.8 mph 26.5 mph N/A   Overcast
9:35 PM 44.6 °F 38.4 °F 41.0 °F 87% 30.02 in 3.0 mi West 12.7 mph - N/A   Overcast
9:55 PM 44.6 °F 38.4 °F 41.0 °F 87% 30.02 in 3.0 mi West 12.7 mph - N/A   Overcast
10:15 PM 44.6 °F 38.4 °F 41.0 °F 87% 30.02 in 3.0 mi West 12.7 mph 18.4 mph N/A   Overcast
10:36 PM 44.6 °F 38.1 °F 42.8 °F 93% 30.02 in 4.0 mi West 13.8 mph - N/A   Overcast
10:56 PM 44.6 °F 38.4 °F 42.8 °F 93% 30.02 in 5.0 mi West 12.7 mph 18.4 mph N/A   Overcast
11:16 PM 44.6 °F 37.8 °F 42.8 °F 93% 30.01 in 7.0 mi West 15.0 mph 20.7 mph N/A   Overcast
11:36 PM 44.6 °F 38.8 °F 42.8 °F 93% 30.01 in 10.0 mi West 11.5 mph 17.3 mph N/A   Overcast
11:56 PM 46.4 °F 40.4 °F 42.8 °F 87% 30.01 in 10.0 mi West 13.8 mph 18.4 mph N/A   Overcast